This demonstration page uses our WeatherBlox Daily Observations layout. Learn more.

Left ArrowRight Arrow

Hourly Observations for August 17, 2022

Temp ( °F °C ) Dew Point ( °F °C ) Humidity (%) Winds ( mph kmh ) Pressure ( in mb ) Visibility ( mi km ) Precip ( " mm )
12:56 am 00:56 Clear 68 20 61 16 78 78 Calm 30.14 1021 10 16 0.00 0.00
1:56 am 01:56 Clear 66 19.1 60 15.7 81 81 Calm 30.14 1021 10 16 0.00 0.00
2:56 am 02:56 Clear 65 18.5 60 15.5 83 83 Calm 30.14 1021 10 16 0.00 0.00
3:56 am 03:56 Clear 65 18.1 61 15.9 87 87 Calm 30.14 1021 10 16 0.00 0.00
4:56 am 04:56 Clear 65 18.4 59 14.9 80 80 NNE 3 6 30.16 1021 10 16 0.00 0.00
5:56 am 05:56 Clear 62 16.7 60 15.6 93 93 Calm 30.12 1020 10 16 0.00 0.00
6:56 am 06:56 Sunny 63 17.1 60 15.4 90 90 Calm 30.18 1022 9 14 0.00 0.00
7:56 am 07:56 Sunny 68 19.8 60 15.4 76 76 Calm 30.19 1023 10 16 0.00 0.00
8:56 am 08:56 Sunny 70 21.2 60 15.5 70 70 E 3 6 30.19 1023 10 16 0.00 0.00
9:56 am 09:56 Sunny 73 22.8 61 16.1 66 66 Calm 30.19 1023 10 16 0.00 0.00
10:56 am 10:56 Sunny 77 24.9 61 16.3 59 59 SSE 3 6 30.19 1023 10 16 0.00 0.00
11:56 am 11:56 Partly Cloudy 80 26.8 60 15.5 50 50 S 3 6 30.19 1022 10 16 0.00 0.00
12:56 pm 12:56 Sunny 81 27.4 60 15.4 48 48 NE 6 9 30.17 1022 10 16 0.00 0.00
1:56 pm 13:56 Sunny 82 27.9 57 13.8 42 42 Calm 30.16 1021 10 16 0.00 0.00
2:56 pm 14:56 Mostly Sunny 84 28.7 58 14.5 42 42 Calm 30.15 1021 10 16 0.00 0.00
3:56 pm 15:56 Partly Cloudy 84 28.8 57 13.8 40 40 ESE 3 6 30.14 1021 10 16 0.00 0.00
4:56 pm 16:56 Mostly Cloudy 81 27.4 57 14 44 44 SE 3 6 30.13 1020 10 16 0.00 0.00
5:56 pm 17:56 Partly Cloudy 83 28.1 57 14 42 42 E 3 6 30.07 1018 10 16 0.00 0.00
6:56 pm 18:56 Mostly Sunny 81 27.4 58 14.7 46 46 ESE 3 6 30.11 1020 10 16 0.00 0.00
7:56 pm 19:56 Sunny 78 25.4 60 15.4 54 54 Calm 30.11 1020 10 16 0.00 0.00
8:56 pm 20:56 Clear 75 24 60 15.5 59 59 Calm 30.10 1019 10 16 0.00 0.00
9:56 pm 21:56 Clear 73 22.9 61 16.2 66 66 Calm 30.11 1020 10 16 0.00 0.00
10:56 pm 22:56 Clear 71 21.9 62 16.8 73 73 Calm 30.11 1020 10 16 0.00 0.00
11:56 pm 23:56 Clear 69 20.7 62 16.9 79 79 Calm 30.10 1019 10 16 0.00 0.00

Powered by AerisWeather